Location: Cz?stochówka
(50.8142°N, 19.0915°E)
Time: 19:21:30
(UTC+00:00)

Cosmos 2228 Rocket - Pass Details

Date: 13 January 2026
Orbit: 612 x 647 km, 82.5° (Epoch: 13 February)

Event Time Altitude Azimuth Distance (km) Brightness Sun altitude
Rises 05:00:42 0° 353° (N) 2,911 6.3 -15.2°
Reaches altitude 10° 05:03:00 10° 359° (N) 1,995 5.5 -14.8°
Maximum altitude 05:07:18 50° 75° (ENE) 785 3.9 -14.2°
Drops below altitude 10° 05:11:33 10° 152° (SSE) 1,968 6.3 -13.5°
Sets 05:13:48 0° 157° (SSE) 2,866 7.1 -13.2°
